Flag for Canada Weather past 2 weeks in Whitehorse, Yukon Territory, Canada

Now
30 °F

Light snow. Overcast.


Feels Like: 17 °F
Forecast: 20 / 39 °F
Wind: 21 mph from Northwest

Location: Withehorse

Current Time: Sep 30, 2014 at 6:37:40 PM

Latest Report: Sep 30, 2014 at 6:00 PM


Visibility: 2 mi

Pressure: 30.01 "Hg

Humidity: 75%

Dew point: 23 °F

Location of WhitehorseLocation

Historic Weather in Whitehorse — Graph

°F

Whitehorse temperature yesterday

Maximum temperature yesterday: 43 °F (at 12:00 AM)
Minimum temperature yesterday: 39 °F (at 7:00 AM)
Average temperature yesterday: 41 °F

Past Weeks' High & Low Weather Summary

 TemperatureHumidityPressure
High64 °F (Sep 15, 5:00 PM)100% (Sep 21, 5:00 PM)30.14 "Hg (Sep 21, 5:00 PM)
Low25 °F (Sep 26, 6:00 AM)27% (Sep 16, 6:00 PM)29.24 "Hg (Sep 18, 6:00 PM)
Average44 °F73%29.75 "Hg
* Reported Sep 15 5:00 PM — Sep 30 5:00 PM, Whitehorse, Weather by CustomWeather, © 2014

Note: Actual official high and low records may vary slightly from our data, if they occured in-between our weather recording intervals... More about our weather records

Advertising

Whitehorse weather history for previous 24 hours

 ConditionsComfort  
Time TempWeatherWind HumidityBarometerVisibility
5:00 PM
Sep 30
30 °FLight snow. Overcast.22 mph75%30.00 "Hg2 mi
4:00 PM30 °FLight snow. Overcast.20 mph80%29.97 "Hg2 mi
3:00 PM32 °FLight snow. Overcast.20 mph75%29.94 "Hg1 mi
2:00 PM32 °FLight snow. Mostly cloudy.17 mph75%29.89 "Hg1 mi
1:00 PM32 °FLight snow. More clouds than sun.21 mph75%29.86 "Hg1 mi
12:49 PM32 °FLight snow. More clouds than sun.21 mph75%29.85 "Hg2 mi
12:04 PM32 °FLight snow. Low clouds.9 mph80%29.84 "Hg4 mi
11:00 AM30 °FChilly.8 mph100%29.82 "Hg1 mi
10:47 AM30 °FLight snow. Low clouds.12 mph100%29.81 "Hg1 mi
10:00 AM30 °FHeavy snow. Ice fog.15 mph100%29.78 "Hg0 mi
7:00 AM37 °FLight rain. Low clouds.10 mph87%29.67 "Hg3 mi
6:52 AM37 °FLight rain. Low clouds.8 mph87%29.67 "Hg10 mi
6:00 AM37 °FOvercast.5 mph87%29.68 "Hg10 mi
5:00 AM37 °FOvercast.2 mph87%29.71 "Hg10 mi
4:00 AM37 °FOvercast.2 mph87%29.74 "Hg10 mi
3:00 AM37 °FOvercast.3 mph81%29.75 "Hg10 mi
2:00 AM39 °FOvercast.7 mph81%29.77 "Hg10 mi
1:00 AM39 °FOvercast.3 mph81%29.78 "Hg10 mi
12:00 AM39 °FLight rain. Overcast.6 mph81%29.79 "Hg10 mi
11:00 PM
Sep 29
39 °FOvercast.7 mph81%29.78 "Hg10 mi
10:00 PM41 °FLight rain. Overcast.5 mph81%29.78 "Hg10 mi
9:00 PM41 °FLight rain. Overcast.6 mph81%29.78 "Hg10 mi
8:00 PM41 °FScattered showers. Mostly cloudy.5 mph81%29.78 "Hg20 mi
7:00 PM43 °FCloudy.6 mph71%29.76 "Hg40 mi
6:00 PM43 °FBroken clouds.6 mph71%29.76 "Hg40 mi
Weather by CustomWeather, © 2014

See weather overviewHow to use our weather pages